Starlink 30844

operational
NORAD ID: 58403 Int'l Des: 2023-180 Owner: SPXS Country: US Constellation: starlink
LEOCIRCULAR

Über Starlink 30844

Beschreibung wird geladen...

Live-Position

3D-Globus wird geladen...

Nächste Überflüge

Höhenverlauf

Altitude vs Time

uPlot chart will show altitude changes over time

Zweizeiliger Elementsatz

1 58403U 23180B 25300.69128330 -.00004242 00000-0 -29895-3 0 9996
2 58403 43.0046 59.1372 0001383 267.7788 92.2896 15.02557044107463
Epoch: 27. Okt. 2025 • Age: 18 hours

Aktueller Status

Höhe 562.1 km
Geschwindigkeit 7.59 km/s
Subsatellitenpunkt 38.63°N, 20.11°W
Startdatum 22. Nov. 2023
Alter 1.9 years
Typ internet

Technische Details

Klassifizierung Payload
Masse 730.00 kg
Trockenmasse 700.00 kg
Gesamtmasse 730.00 kg
Länge 0.30 m
Durchmesser 4.10 m
Spannweite 29.00 m
Form Box + pan
Hersteller SPXS
Bus-Typ Starlink V2M
Phasenstatus In Orbit
Besitzer/Staat SPXS/US

Große Konstellationen

Loading constellations...